Regional Weather Roundup
Issued by NWS

Home | Current Version | Previous Version | Graphics & Text | Print | Product List | Glossary On
Versions: 1 2 3 4 5 6 7 8 9 10 11 12 13 14 15 16 17 18 19 20 21 22 23 24 25 26 27 28 29 30 31 32 33 34 35 36 37 38 39 40 41 42 43 44 45 46 47 48 49 50
645
ASUS43 KMKX 091700
RWRWI

WISCONSIN REGIONAL WEATHER ROUNDUP
NATIONAL WEATHER SERVICE MILWAUKEE/SULLIVAN WI
1100 AM CST TUE FEB 09 2016

NOTE: "FAIR" INDICATES FEW OR NO CLOUDS BELOW 12,000 FEET WITH NO
SIGNIFICANT WEATHER AND/OR OBSTRUCTIONS TO VISIBILITY.

WIZ001-002-006>008-014>016-023>028-091800-
NORTHWEST WISCONSIN

CITY           SKY/WX    TMP DP  RH WIND       PRES   REMARKS
SUPERIOR ARPT  MOSUNNY    8  -3  63 N9        30.12R WCI  -6
ASHLAND        LGT SNOW   9   3  77 NW14      30.04R WCI  -7
HAYWARD        PTSUNNY    7  -2  66 N13       30.01R WCI  -9
SIREN          SUNNY      7  -3  63 N13       30.08R WCI  -9
CUMBERLAND     SUNNY      5  -4  66 NW16      30.01R WCI -14
RICE LAKE      SUNNY      7  -4  60 NW7       30.03S WCI  -5
CHETEK         SUNNY      6  -4  61 NW8       30.02R WCI  -7
LADYSMITH      CLOUDY     9   1  69 NW17      29.98R WCI -10
EAU CLAIRE     NOT AVBL
MENOMONIE      SUNNY     10  -5  49 NW14      30.05R WCI  -5
NEW RICHMOND   SUNNY      7  -3  64 NW17G23   30.07R WCI -11
OSCEOLA        SUNNY      8  -1  65 NW17G23   30.13R WCI -10
$$

WIZ003>005-009-010-017-018-091800-
NORTH CENTRAL WISCONSIN

CITY           SKY/WX    TMP DP  RH WIND       PRES   REMARKS
MANITOWISH WTR LGT SNOW  10   4  75 N17G24    29.85R WCI  -7
ARBOR VITAE    CLOUDY    12   5  73 N23G30    29.84R HAZE    WCI  -7
WOODRUFF       CLOUDY    12   5  73 N23G30    29.84R HAZE    WCI  -7
RHINELANDER    LGT SNOW  13   4  67 N13G24    29.82R WCI  -2
EAGLE RIVER    LGT SNOW  11   3  68 N22G28    29.80S WCI  -8
LAND O LAKES   LGT SNOW  11   5  77 N16G28    29.82R WCI  -5
PHILLIPS       CLOUDY     8   1  73 N16G23    29.88S WCI  -9
TOMAHAWK       CLOUDY    13   5  68 N8G18     29.84S HAZE    WCI   2
MEDFORD        CLOUDY    10   2  70 NW13G22   29.86S WCI  -5
MERRILL        CLOUDY    14   4  65 N16G26    29.85R HAZE    WCI  -2
$$

WIZ029-030-035-036-043>047-091800-
CENTRAL WISCONSIN

CITY           SKY/WX    TMP DP  RH WIND       PRES   REMARKS
WAUSAU         CLOUDY    15   7  70 NW10G20   29.83S WCI   2
MOSINEE        LGT SNOW  10   7  85 NW12      29.85S WCI  -4
MARSHFIELD     PTSUNNY   10   0  63 NW17      29.87S WCI  -8
STEVENS POINT  CLOUDY    10   2  72 NW12G17   29.86S HAZE    WCI  -5
WAUPACA        PTSUNNY   18   8  63 NW13      29.86S HAZE    WCI   5
WAUTOMA        NOT AVBL
WISC RAPIDS    MOSUNNY   11   0  61 NW18G26   29.90S WCI  -7
CAMP DOUGLAS   CLOUDY    10   3  72 NW17      29.93S WCI  -7
$$

WIZ011>013-019>022-031-037>040-048>050-091800-
NORTHEAST WISCONSIN

CITY           SKY/WX    TMP DP  RH WIND       PRES   REMARKS
ANTIGO         CLOUDY    11   4  74 N15G23    29.79S HAZE    WCI  -5
SHAWANO        CLOUDY    19   6  57 N9        29.84S WCI   9
OCONTO         CLOUDY    16   5  60 N16       29.82R WCI   1
STURGEON BAY   CLOUDY    16   7  67 NW18      29.80S WCI  -1
GREEN BAY      MOSUNNY   17   6  62 N18       29.82S WCI   1
MANITOWOC      NOT AVBL
APPLETON       PTSUNNY   16   7  67 NW15G21   29.81R WCI   1
CLINTONVILLE   CLOUDY    18   9  68 N10       29.84R HAZE    WCI   6
OSHKOSH        CLOUDY    15   6  67 NW15      29.83S WCI   0
$$

WIZ032>034-041-042-053>061-091800-
SOUTHWEST WISCONSIN

CITY           SKY/WX    TMP DP  RH WIND       PRES   REMARKS
LA CROSSE      MOSUNNY   10  -1  61 NW20      30.03R WCI  -9
SPARTA         MOSUNNY   11   2  68 NW12G20   29.99S WCI  -4
VIROQUA        MOSUNNY    8   0  69 NW17G23   29.93S WCI -10
BOSCOBEL       MIX PCPN  14   2  58 N12       29.99R WCI   0
PRAIRIE DU CHI MOSUNNY   12   1  59 NW16      30.01S WCI  -4
PLATTEVILLE    MOSUNNY   11   5  75 NW17      29.93R WCI  -6
$$

WIZ056-057-062-063-064-067-068-091800-
SOUTH CENTRAL WISCONSIN

CITY           SKY/WX    TMP DP  RH WIND       PRES   REMARKS
REEDSBURG      PTSUNNY   11   3  68 NW12G23   29.92R HAZE    WCI  -3
BARABOO/DELLS  PTSUNNY   11   2  66 NW13G21   29.90R WCI  -4
LONE ROCK      CLOUDY    12   1  62 NW16G25   29.95R WCI  -4
MINERAL POINT  MOSUNNY   14   5  67 NW14      29.90R WCI  -1
MADISON        CLOUDY    12   3  67 NW16G24   29.88S WCI  -5
MIDDLETON      CLOUDY    14   6  70 NW17G24   29.89R WCI  -3
WATERTOWN      PTSUNNY   14   7  73 NW12G17   29.85R WCI   0
MONROE         MOSUNNY   16   5  62 NW12G20   29.87S WCI   3
JANESVILLE     PTSUNNY   16   7  67 NW18G25   29.87R WCI  -1
$$

WIZ051-052-058>065-066-070>072-091800-
SOUTHEAST WISCONSIN

CITY           SKY/WX    TMP DP  RH WIND       PRES   REMARKS
MILWAUKEE      PTSUNNY   17   6  62 NW15      29.82S WCI   2
WAUKESHA       PTSUNNY   12   5  73 NW15G23   29.83R WCI  -4
MILWAUKEE/TIMM PTSUNNY   16   5  62 NW17G23   29.83R WCI   0
RACINE         CLOUDY    18   6  59 NW15      29.83R WCI   4
BURLINGTON     MOSUNNY   14   5  67 NW18      29.84R WCI  -3
KENOSHA        MOSUNNY   17   7  64 NW13      29.82R WCI   4
FOND DU LAC    SUNNY     15   7  70 NW15      29.83S WCI   0
SHEBOYGAN      CLOUDY    16   7  67 NW13      29.80S WCI   2
WEST BEND      MOSUNNY   16   7  67 NW13G21   29.81S WCI   2
JUNEAU         MOSUNNY   13   5  71 NW14G22   29.85R WCI  -3
$$

LSZ147-162-091800-
LAKE SUPERIOR

STATION/POSITION TIME  TEMP    WIND        PRES    WAVE
                       AIR SEA DIR/SP/G            HT/PER
                 (UTC) (F)     (DEG/KT/KT) (MB)    (FT/S)
DEVILS ISLAND    1600    9     340/ 23/ 26 1018.8R
SAXON HARBOR     1620   12                 1015.9R
$$

LMZ867-665-643>646-091800-
LAKE MICHIGAN

STATION/POSITION TIME  TEMP    WIND        PRES    WAVE
                       AIR SEA DIR/SP/G            HT/PER
                 (UTC) (F)     (DEG/KT/KT) (MB)    (FT/S)
CHAMBERS ISLAND  1600   17     300/ 19/ 24 1008.5R
ALGOMA LAKESHORE 1541          320/ 20/ 24   N/A
KEWAUNEE LAKESHO 1600   15     330/ 13/ 20 1008.1R
SHEBOYGAN LAKESH 1600   15     320/ 17/ 21 1010.4R
PORT WASHINGTON  1600   16     300/ 12/ 17 1010.5F
MILWAUKEE LAKESH 1610   16     300/ 10/ 13   N/A
KENOSHA   LAKESH 1600   15     310/ 15/ 22 1009.8S
$$

TC  - TEMPERATURE IN CELSIUS
VSB - VISIBILITY IN STATUTE MILES
WCI - WIND CHILL INDEX
HX  - HEAT INDEX





USA.gov is the U.S. government's official web portal to all federal, state and local government web resources and services.